Regional Weather Roundup
Issued by NWS

Home | Current Version | Previous Version | Graphics & Text | Print | Product List | Glossary On
Versions: 1 2 3 4 5 6 7 8 9 10 11 12 13 14 15 16 17 18 19 20 21 22 23 24 25 26 27 28 29 30 31 32 33 34 35 36 37 38 39 40 41 42 43 44 45 46 47 48 49 50
000
ASUS43 KMKX 280911
RWRWI

WISCONSIN REGIONAL WEATHER ROUNDUP
NATIONAL WEATHER SERVICE MILWAUKEE/SULLIVAN WI
400 AM CDT THU JUL 28 2016

NOTE: "FAIR" INDICATES FEW OR NO CLOUDS BELOW 12,000 FEET WITH NO
SIGNIFICANT WEATHER AND/OR OBSTRUCTIONS TO VISIBILITY.

WIZ001-002-006>008-014>016-023>028-281000-
NORTHWEST WISCONSIN

CITY           SKY/WX    TMP DP  RH WIND       PRES   REMARKS
SUPERIOR ARPT  CLOUDY    59  56  92 CALM      30.05F
ASHLAND        CLOUDY    61  59  93 NE6       30.06R
HAYWARD        CLOUDY    62  60  93 N10       30.03S
SIREN          NOT AVBL
CUMBERLAND     CLOUDY    63  61  94 N6        30.01R
RICE LAKE      CLOUDY    65  63  93 N5        30.01S
CHETEK         CLOUDY    65  64  95 N7        29.99
LADYSMITH      CLOUDY    65  64  96 N8        30.01F
EAU CLAIRE     CLOUDY    66  65  96 NE7       29.95F
MENOMONIE      CLOUDY    66  66  99 N6        29.97S
NEW RICHMOND   CLOUDY    64  63  97 N7        29.99F
OSCEOLA        CLOUDY    64  64 100 N7        30.02F
$$

WIZ003>005-009-010-017-018-281000-
NORTH CENTRAL WISCONSIN

CITY           SKY/WX    TMP DP  RH WIND       PRES   REMARKS
MANITOWISH WTR CLOUDY    60  60 100 NE6       30.04R
ARBOR VITAE    CLOUDY    62  60  94 E5        30.04R
WOODRUFF       CLOUDY    62  60  94 E5        30.04R
RHINELANDER    CLOUDY    60  57  89 NE7       30.04R
EAGLE RIVER    CLOUDY    59  58  97 E6        30.04R
LAND O LAKES   CLOUDY    59  57  94 CALM      30.06S
PHILLIPS       CLOUDY    63  63  99 NE9       30.01S
TOMAHAWK       CLOUDY    62  61  96 NE7       30.01S
MEDFORD        HVY RAIN  63  63 100 NE6       29.98S
MERRILL        DRIZZLE   63  63 100 E7        30.00R
$$

WIZ029-030-035-036-043>047-281000-
CENTRAL WISCONSIN

CITY           SKY/WX    TMP DP  RH WIND       PRES   REMARKS
WAUSAU         LGT RAIN  63  62  97 NE9       29.96S
MOSINEE        DRIZZLE   63  63 100 NE10      29.97S
MARSHFIELD     CLOUDY    66  63  90 E8        29.94F
STEVENS POINT  CLOUDY    63  63  99 E7        29.96S
WAUPACA        CLOUDY    67  67  99 NE5       29.95S
WAUTOMA        CLOUDY    66  65  96 E6        29.94F
WISC RAPIDS    MOCLDY    65  62  90 E8        29.95S
CAMP DOUGLAS   CLOUDY    67  67  99 E3        29.92S
$$

WIZ011>013-019>022-031-037>040-048>050-281000-
NORTHEAST WISCONSIN

CITY           SKY/WX    TMP DP  RH WIND       PRES   REMARKS
ANTIGO         LGT RAIN  58  58  98 E7        30.01F
SHAWANO        LGT RAIN  64  61  93 NE9       29.98S
OCONTO         CLOUDY   N/A N/A N/A CALM      29.97S
STURGEON BAY   CLOUDY    64  61  90 NE7       29.98R
GREEN BAY      CLOUDY    66  65  96 NE8       29.96S
MANITOWOC      CLOUDY    66  60  81 N5        29.96S
APPLETON       CLOUDY    66  66 100 NE8       29.95S
CLINTONVILLE   LGT RAIN  63  63 100 NE6       29.97S
OSHKOSH        CLOUDY    70  66  87 E13       29.94R
$$

WIZ032>034-041-042-053>061-281000-
SOUTHWEST WISCONSIN

CITY           SKY/WX    TMP DP  RH WIND       PRES   REMARKS
LA CROSSE      CLOUDY    69  66  90 N6        29.91R
SPARTA         CLOUDY    66  66  99 CALM      29.92S
VIROQUA        CLOUDY    67  67 100 CALM      29.92F
BOSCOBEL       FOG       69  68  96 CALM      29.90F VSB 1/4
PRAIRIE DU CHI CLOUDY    67  66  94 CALM      29.89S FOG
PLATTEVILLE    CLEAR     65  65 100 N3        29.91S
$$

WIZ056-057-062-063-064-067-068-281000-
SOUTH CENTRAL WISCONSIN

CITY           SKY/WX    TMP DP  RH WIND       PRES   REMARKS
REEDSBURG      CLOUDY    69  69 100 E6        29.91S
BARABOO/DELLS  MOCLDY    68  66  93 E6        29.92S
LONE ROCK      FOG       66  66 100 CALM      29.91S VSB 1/2
MINERAL POINT  CLEAR     68  66  94 CALM      29.92S
MADISON        PTCLDY    69  66  90 E3        29.91R
MIDDLETON      PTCLDY    70  70 100 CALM      29.91S
WATERTOWN      MOCLDY    68  68 100 E6        29.91S
MONROE         CLEAR     70  66  88 S3        29.91S
JANESVILLE     CLEAR     70  68  94 CALM      29.90S
$$

WIZ051-052-058>065-066-070>072-281000-
SOUTHEAST WISCONSIN

CITY           SKY/WX    TMP DP  RH WIND       PRES   REMARKS
MILWAUKEE      CLOUDY    69  66  90 N9        29.92S
WAUKESHA       CLOUDY    66  66 100 NE5       29.95R
MILWAUKEE/TIMM RAIN      68  63  83 NE7       29.95R
RACINE         CLOUDY    70  67  90 NE3       29.93S
BURLINGTON     FOG       70  69  98 CALM      29.92S VSB 1/2
KENOSHA        CLEAR     68  66  93 NE3       29.91F
FOND DU LAC    CLOUDY    69  65  86 E8        29.95R
SHEBOYGAN      CLOUDY    65  62  90 NE15      29.95S
WEST BEND      CLOUDY    64  64 100 NE8       29.95F
JUNEAU         CLOUDY    67  65  93 NE8       29.95R
$$

LSZ147-162-281000-
LAKE SUPERIOR

STATION/POSITION TIME  TEMP    WIND        PRES    WAVE
                       AIR SEA DIR/SP/G            HT/PER
                 (UTC) (F)     (DEG/KT/KT) (MB)    (FT/S)
W MID LAKE BUOY  0850   60 60  360/  8/  8 1017.0R   1
DEVILS ISLAND    0900   62      20/  9/ 11 1017.8R
PORT WING        0740   60      80/  1/  2 1017.6R
SAXON HARBOR     0800   65      60/  6/  7 1016.6
$$

LMZ867-665-643>646-281000-
LAKE MICHIGAN

STATION/POSITION TIME  TEMP    WIND        PRES    WAVE
                       AIR SEA DIR/SP/G            HT/PER
                 (UTC) (F)     (DEG/KT/KT) (MB)    (FT/S)
CHAMBERS ISLAND  0800   66      40/ 13/ 15 1015.2F
N MID LAKE BUOY  0850   65 69   50/ 16/ 17 1014.5F   2/ 4
NORTHPORT PIER   0800   64      30/  8/ 10 1015.6F
SISTER BAY       0721   61      90/  7/ 10   N/A
ALGOMA LAKESHORE 0828           60/ 13/ 17   N/A
KEWAUNEE LAKESHO 0800   63      20/  4/  8 1013.9F
SHEBOYGAN LAKESH 0900   61     350/ 12/ 13 1014.1F
PORT WASHINGTON  0840   68      20/ 10/ 17 1014.2F
ATWATER BUOY     0900   64 65  320/  8/ 10 1015.1R
MILWAUKEE LAKESH 0810   67      30/  9/ 10   N/A
S MID LAKE BUOY  0850   74 75  320/  8/ 10 1012.4R   0
KENOSHA   LAKESH 0900   71      90/  8/  9 1012.2S
$$

TC  - TEMPERATURE IN CELSIUS
VSB - VISIBILITY IN STATUTE MILES
WCI - WIND CHILL INDEX
HX  - HEAT INDEX





USA.gov is the U.S. government's official web portal to all federal, state and local government web resources and services.